Accueil
METAR-TAF:

METAR-TAF

Aéroports :

Odiham, Angleterre

latitude: 51-14N, longitude: 000-57W, altitude: 123 m

Observation

Le bulletin a été fait il y a 40 minutes, à 12:50 UTC
Vent 16 kt de ouest/nord-ouest
Température 12°C
Humidité 54%
Pression 1015 hPa
Visibilité 10 km ou plus
Quelques nuages à une hauteur de 4200 ft

METAR: EGVO 221250Z 29016KT 9999 FEW042 12/03 Q1015 BLU

Heure: 14:30 (13:30 UTC)


TAF: absent

Observations et prévisions météorologiques de plus de 4000 aéroports (messages METAR et TAF).

Les stations disponibles sont représentées par des disques jaunes et rouges sur la carte.

Passer la souris dessus pour voir le nom de la station.

Cliquer dessus pour voir les observations et prévisions météorologiques.

Pour changer de carte: cliquez sur les boutons verts avec une croix noire pour zoomer, sur le bouton vert avec un tiret pour effectuer un zoom arrière, ou sur les flèches vertes pour les cartes adjacentes.


METAR-TAF: